(192) Nausikaa
ephemeris date magn radius delta ra dec elong phase
Today2 Jun 202311.31.979 AU2.988 AU04h28m+26°18'4.7°2.4°
Opposition9 Feb 202410.62.644 AU1.659 AU09h37m+18°39'175.7°1.6°
(192) Nausikaa - 2023-06-02
astro.vanbuitenen.nl


 
-1 year
-1 month
-1 day
Now
+1 day
+1 month
+1 year

The interactive orbit chart above shows the body's path through the solar system and its position at the given date. Green and blue lines are shown perpendicular to the ecliptic plane: Green if the path is above the ecliptic plane, blue if it is below. (Left-click and drag to rotate the view; Right-click and drag to move the view; Use scroll wheel to zoom in our out.)

The orbital elements of Nausikaa are:

            e (Eccentricity)                : 0.2460743
            a (Semimajor axis)              : 2.4031741
            i (Inclination)                 : 6.79814
            Ω (Longitude of ascending node) : 343.09889
            ω (Argument of perihelion)      : 30.60540
            M (Mean anomaly)                : 8.69530
            Epoch                           : 2023 Feb 25

            L (Longitude of perihelion)     : 13.52745
            B (Latitude of perihelion)      : 3.45506
            P (Orbital period in years)     : 3.73            
        

The light curve chart below shows the estimated development of the minor planet's magnitude.


The all-sky chart below shows the path of the minor planet over the same period as the light curve. The current position is marked yellow.





The following chart shows the path of the minor planet in the next few days. The field of view is optimized for (~10x50) binoculars and finderscopes. A more printer-friendly version of the same chart can be found below.




Ephemerides:
Date       Time       RA (2000)    DEC (2000)    delta   radius  elong  phase   PA    magn
2023-06-02 00:00 UT   04 28 21.0   +26 18 26     2.988    1.979    4.7    2.4   334   11.3 
2023-06-02 21:57 UT   04 30 39.9   +26 23 30     2.990    1.981    4.8    2.5   330   11.3 
2023-06-03 00:00 UT   04 30 52.9   +26 23 58     2.990    1.981    4.8    2.5   330   11.3 
2023-06-04 00:00 UT   04 33 24.7   +26 29 20     2.992    1.984    5.0    2.5   326   11.3 
2023-06-05 00:00 UT   04 35 56.5   +26 34 33     2.994    1.986    5.2    2.6   322   11.3 
2023-06-06 00:00 UT   04 38 28.3   +26 39 37     2.996    1.988    5.4    2.7   319   11.3 
2023-06-07 00:00 UT   04 40 60.0   +26 44 32     2.998    1.991    5.6    2.9   316   11.4 
2023-06-08 00:00 UT   04 43 31.6   +26 49 17     3.000    1.993    5.8    3.0   313   11.4 
2023-06-09 00:00 UT   04 46 03.2   +26 53 53     3.002    1.996    6.1    3.1   310   11.4 
2023-06-10 00:00 UT   04 48 34.7   +26 58 20     3.004    1.998    6.4    3.2   308   11.4 
2023-06-11 00:00 UT   04 51 06.1   +27 02 38     3.005    2.000    6.6    3.4   306   11.4 
2023-06-12 00:00 UT   04 53 37.5   +27 06 46     3.007    2.003    6.9    3.5   304   11.4 
2023-06-13 00:00 UT   04 56 08.7   +27 10 46     3.008    2.005    7.2    3.7   302   11.4 
2023-06-14 00:00 UT   04 58 39.9   +27 14 36     3.010    2.008    7.5    3.8   301   11.4 
2023-06-15 00:00 UT   05 01 10.9   +27 18 17     3.011    2.010    7.9    4.0   299   11.5 
2023-06-16 00:00 UT   05 03 41.8   +27 21 48     3.013    2.012    8.2    4.1   298   11.5 


    Terminology:
            
    delta:  distance between minor planet and earth in AU
    radius: distance between minor planet and sun in AU
    magn:   magnitude (brightness) estimate    
    ra:     right ascension in hours (24h = 360deg)
    dec:    declination in degrees
    elong:  elongation in degrees (angle sun-earth-minor planet)    
    phase:  phase angle in degrees (angle sun-minor planet-earth)        
    AU:     Astronomical Unit (mean distance between earth and sun: 149597870.7 km
    

Orbital elements provided by the MPC (Minor Planet Center).
Calculations by a modified version of AAPlus, a C# implementation of the AA+ project by PJ Naughter from the algorithms presented in the book "Astronomical Algorithms" by Jean Meeus.
NGC2000 dso catalog and star labels from VizieR as provided by the Strasbourg astronomical Data Center.
Tycho2 catalog from the ESO archive.